Starlink 3301

operational
NORAD ID: 50169 Int'l Des: 2021-125 Owner: SPXS Country: US Constellation: starlink
LEOCIRCULAR

About Starlink 3301

Description loading...

Live Position

Loading 3D Globe...

Upcoming Passes

Altitude History

Altitude vs Time

uPlot chart will show altitude changes over time

Two-Line Element Set

1 50169U 21125P 25352.13911745 .00000371 00000-0 41403-4 0 9997
2 50169 53.2169 255.2153 0001360 92.0575 268.0573 15.08844313224297
Epoch: Dec 18, 2025 • Age: 15 hours

Current Status

Altitude 539.9 km
Velocity 7.60 km/s
Sub-Earth Point 21.78°N, 52.72°E
Launch Date Dec 18, 2021
Age 4 years
Type internet

Technical Details

Classification Payload
Mass 290.00 kg
Dry Mass 270.00 kg
Total Mass 290.00 kg
Length 0.20 m
Diameter 2.80 m
Span 9.00 m
Shape Box + pan
Manufacturer SPXS
Bus Type Starlink
Phase Status In Orbit
Owner/State SPXS/US

Large Constellations

Loading constellations...